Starlink 33596

operational
NORAD ID: 62758 Int'l Des: 2025-015 Owner: SPXS Country: US Constellation: starlink
LEOCIRCULAR

Starlink 33596について

説明を読み込み中...

リアルタイム位置

3D地球を読み込み中...

次回通過

高度履歴

Altitude vs Time

uPlot chart will show altitude changes over time

軌道要素

1 62758U 25015A 26036.59669861 .00056300 00000-0 18974-2 0 9993
2 62758 53.1612 111.8033 0000823 86.7742 273.3353 15.30221805 59492
Epoch: Feb 5, 2026 • Age: 11 hours

現在のステータス

高度 477.5 km
速度 7.63 km/s
衛星直下点 -8.79°S, 51.81°W
打ち上げ日 Jan 21, 2025
運用期間 1 years
タイプ internet

技術仕様

分類 Payload
質量 575.00 kg
乾燥質量 530.00 kg
総質量 575.00 kg
長さ 0.30 m
直径 4.10 m
スパン 29.00 m
形状 Box + pan
製造者 SPXS
バスタイプ Starlink V2MO
フェーズステータス In Orbit
所有者/国 SPXS/US

大規模コンステレーション

Loading constellations...